Location: Iesi
(43.5167°N, 13.2333°E)
Time: 19:08:45
(UTC+00:00)

Cosmos 2242 Rocket - Pass Details

Date: 08 August 2020
Orbit: 618 x 652 km, 82.5° (Epoch: 24 September)

Event Time Altitude Azimuth Distance (km) Brightness Sun altitude
Rises 20:40:26 0° 354° (N) 2,928 7.9 -21.2°
Reaches altitude 10° 20:42:42 10° 358° (N) 2,011 6.9 -21.5°
Maximum altitude 20:47:08 64° 80° (E) 690 3.6 -22.0°
Enters shadow 20:47:26 62° 105° (ESE) 702 3.5 -22.0°
